Weather History for KHGR - March, 2013

Change the Weather History Date:

Tuesday, March 26, 2013

  Actual Average Record
Temperature  
Mean Temperature 38 °F 45 °F  
Max Temperature 48 °F 55 °F 75 °F (2004)
Min Temperature 27 °F 36 °F 21 °F (2001)
Degree Days  
Heating Degree Days 27 20  
Month to date heating degree days 699 634  
Since 1 July heating degree days 4337 4537  
Cooling Degree Days 0 0  
Month to date cooling degree days 0 0  
Year to date cooling degree days 0 0  
Moisture  
Dew Point 30 °F    
Average Humidity 71    
Maximum Humidity 100    
Minimum Humidity 42    
Precipitation  
Precipitation 0.01 in 0.14 in 0.61 in (2002)
Month to date precipitation 1.39 2.69  
Year to date precipitation 5.62 7.92  
Sea Level Pressure  
Sea Level Pressure 29.83 in    
Wind  
Wind Speed 8 mph (WNW)    
Max Wind Speed 21 mph    
Max Gust Speed 26 mph    
Visibility 6 miles    
Events Fog , Snow    
T = Trace of Precipitation, MM = Missing Value Source: NWS Daily Summary

Daily Weather History Graph

Daily Weather History Graph

Search for Another Location

Airport or City:

Trip Planner

Search our weather history database for the weather conditions in past years. The results will help you decide how hot, cold, wet, or windy it might be!

Date:

Astronomy

Mar. 26, 2013 Rise Set
Actual Time 7:04 AM EDT 7:29 PM EDT
Civil Twilight 6:37 AM EDT 7:56 PM EDT
Nautical Twilight 6:05 AM EDT 8:28 PM EDT
Astronomical Twilight 5:33 AM EDT 9:00 PM EDT
Moon 7:03 PM EDT (3/26) 6:19 AM EDT (3/26)
Length of Visible Light 13h 18m
Length of Day
12h 24m
Waxing Gibbous, 99% of the Moon is Illuminated
Mar 26
Waxing Gibbous
Mar 27
Full
Apr 3
Last Quarter
Apr 10
New
Apr 18
First Quarter

Hourly Weather History & Observations

Time (EDT) Temp. Windchill Dew Point Humidity Pressure Visibility Wind Dir Wind Speed Gust Speed Precip Events Conditions
12:21 AM 32.0 °F - 32.0 °F 100% 29.70 in 0.5 mi Calm Calm - N/A Fog Fog
12:41 AM 32.0 °F - 32.0 °F 100% 29.70 in 0.2 mi Calm Calm - N/A Fog Fog
12:49 AM 32.0 °F - 32.0 °F 100% 29.70 in 0.5 mi Calm Calm - N/A Fog Fog
12:53 AM 32.0 °F - 32.0 °F 100% 29.75 in 0.5 mi Calm Calm - N/A Fog Fog
12:57 AM 32.0 °F - 32.0 °F 100% 29.70 in 0.8 mi Calm Calm - N/A   Overcast
1:00 AM 32.0 °F - 32.0 °F 100% 29.71 in 0.8 mi Calm Calm - N/A   Overcast
1:07 AM 32.0 °F - 32.0 °F 100% 29.71 in 1.5 mi Calm Calm - N/A   Overcast
1:15 AM 33.8 °F - 33.8 °F 100% 29.71 in 1.2 mi Calm Calm - N/A   Overcast
1:44 AM 32.0 °F 28.7 °F 32.0 °F 100% 29.72 in 2.0 mi West 3.5 mph - 0.00 in Snow Light Snow
1:53 AM 32.0 °F 27.5 °F 32.0 °F 100% 29.77 in 2.0 mi West 4.6 mph - 0.00 in Snow Light Snow
2:00 AM 32.0 °F 27.5 °F 32.0 °F 100% 29.72 in 1.8 mi West 4.6 mph - 0.00 in Snow Light Snow
2:10 AM 32.0 °F 26.4 °F 32.0 °F 100% 29.72 in 2.0 mi WNW 5.8 mph - 0.00 in Snow Light Snow
2:51 AM 32.0 °F 27.5 °F 32.0 °F 100% 29.73 in 3.0 mi WNW 4.6 mph - 0.00 in Snow Light Snow
2:53 AM 32.0 °F 27.5 °F 32.0 °F 100% 29.78 in 3.0 mi WNW 4.6 mph - 0.00 in Snow Light Snow
3:53 AM 32.0 °F 28.7 °F 30.9 °F 96% 29.78 in 6.0 mi West 3.5 mph - 0.01 in   Clear
4:53 AM 32.0 °F - 28.9 °F 88% 29.79 in 8.0 mi Calm Calm - N/A   Clear
5:53 AM 32.0 °F - 30.0 °F 92% 29.81 in 8.0 mi Calm Calm - N/A   Overcast
6:53 AM 32.0 °F - 30.0 °F 92% 29.83 in 9.0 mi Calm Calm - N/A   Overcast
7:53 AM 32.0 °F 23.6 °F 28.9 °F 88% 29.86 in 8.0 mi NW 10.4 mph - N/A   Clear
8:53 AM 34.0 °F 26.6 °F 30.0 °F 85% 29.88 in 10.0 mi NW 9.2 mph - N/A   Clear
9:53 AM 37.0 °F 31.6 °F 30.9 °F 79% 29.90 in 10.0 mi WNW 6.9 mph - N/A   Clear
10:53 AM 39.0 °F 32.8 °F 30.0 °F 70% 29.91 in 10.0 mi NW 9.2 mph - N/A   Partly Cloudy
11:53 AM 41.0 °F 33.9 °F 28.0 °F 60% 29.91 in 10.0 mi NW 12.7 mph - N/A   Partly Cloudy
12:53 PM 44.1 °F 38.1 °F 30.0 °F 58% 29.91 in 10.0 mi WNW 11.5 mph - N/A   Scattered Clouds
1:53 PM 46.0 °F 41.0 °F 28.9 °F 51% 29.90 in 10.0 mi WNW 10.4 mph - N/A   Scattered Clouds
2:53 PM 46.0 °F 41.4 °F 25.0 °F 44% 29.89 in 10.0 mi North 9.2 mph - N/A   Overcast
3:53 PM 46.0 °F 39.0 °F 28.9 °F 51% 29.89 in 10.0 mi NW 17.3 mph 26.5 mph N/A   Mostly Cloudy
4:53 PM 45.0 °F 38.5 °F 27.0 °F 49% 29.91 in 10.0 mi NW 13.8 mph 21.9 mph N/A   Overcast
5:53 PM 46.0 °F 39.3 °F 27.0 °F 47% 29.91 in 10.0 mi WNW 16.1 mph - N/A   Overcast
6:53 PM 45.0 °F 37.4 °F 27.0 °F 49% 29.93 in 10.0 mi WNW 18.4 mph - N/A   Partly Cloudy
7:53 PM 42.1 °F 35.2 °F 27.0 °F 55% 29.97 in 10.0 mi WNW 12.7 mph 20.7 mph N/A   Overcast
8:53 PM 39.9 °F 34.5 °F 28.0 °F 63% 29.99 in 10.0 mi NW 8.1 mph - N/A   Mostly Cloudy
9:53 PM 39.9 °F 31.8 °F 28.0 °F 63% 30.02 in 10.0 mi NW 15.0 mph - N/A   Overcast
10:53 PM 39.0 °F 31.4 °F 28.9 °F 67% 30.03 in 10.0 mi WNW 12.7 mph - N/A   Overcast
11:53 PM 37.9 °F 33.5 °F 28.9 °F 70% 30.04 in 10.0 mi WNW 5.8 mph - N/A   Overcast